Regional Weather Roundup
Issued by NWS Cleveland, OH

Home | Current Version | Previous Version | Text Only | Print | Product List | Glossary Off
Versions: 1 2 3 4 5 6 7 8 9 10 11 12 13 14 15 16 17 18 19 20 21 22 23 24 25 26 27 28 29 30 31 32 33 34 35 36 37 38 39 40 41 42 43 44 45 46 47 48 49 50

000
ASUS41 KCLE 241602
RWRCLE
OHIO REGIONAL WEATHER ROUNDUP
NATIONAL WEATHER SERVICE CLEVELAND, OH
1200 PM EDT FRI OCT 24 2014

NOTE: "FAIR" INDICATES FEW OR NO CLOUDS BELOW 12,000 FEET WITH NO
SIGNIFICANT WEATHER AND/OR OBSTRUCTIONS TO VISIBILITY.

OHZ001>008-015>018-024>027-034-035-043-044-241700-
   NORTHWEST OHIO

CITY           SKY/WX    TMP DP  RH WIND       PRES   REMARKS
DEFIANCE       CLOUDY    53  44  71 S5        30.09F
FINDLAY        SUNNY     59  42  53 W8        30.09S
TOLEDO EXPRESS CLOUDY    56  42  59 SW9       30.09S
TOLEDO EXEC    SUNNY     57  42  57 SW8       30.10F
LIMA           SUNNY     58  42  55 NW5       30.10S
$$

OHZ009>014-019>023-028>033-038-089-241700-
   NORTHEAST OHIO

CITY           SKY/WX    TMP DP  RH WIND       PRES   REMARKS
CLE-HOPKINS    MOSUNNY   55  42  61 SW7       30.11F
CLE-LAKEFRONT  SUNNY     55  44  66 W8        30.08F
CUY CO. ARPT   PTSUNNY   55  43  62 NW12      30.09S
LORAIN-ELYRIA  SUNNY     56  41  57 VRB5      30.10F HAZE
ASHTABULA      PTSUNNY   55  44  66 W8        30.07F
AKRON-CANTON   PTSUNNY   55  39  54 SW7       30.09F
WOOSTER        SUNNY     57  39  51 W8        30.10F
MANSFIELD      SUNNY     57  40  52 VRB3      30.10F
YOUNGSTOWN     PTSUNNY   55  41  59 W8        30.07F
$$

OHZ042-051>053-060>062-070>072-077>081-241700-
  SOUTHWEST OHIO

CITY           SKY/WX    TMP DP  RH WIND       PRES   REMARKS
CINC-COVINGTON SUNNY     59  42  53 S3        30.12F
CINC-LUNKEN    SUNNY     58  46  64 CALM      30.13F
HAMILTON       SUNNY     60  44  55 VRB5      30.13F
DAYTON         MOSUNNY   60  42  51 SW7       30.12S
WRIGHT-PAT AFB SUNNY     57  41  54 S6        30.11F
DAYTON GENERAL SUNNY     57  43  59 CALM      30.11F
WILMINGTON     SUNNY     58  40  51 W6        30.11F
$$

OHZ036-037-039>041-045>050-054>059-063>069-073>076-082>088-241700-
  CENTRAL AND SOUTHEAST OHIO

CITY           SKY/WX    TMP DP  RH WIND       PRES   REMARKS
COLUMBUS       SUNNY     56  41  57 W3        30.11F
OSU AIRPORT    SUNNY     56  41  57 SW3       30.10F
BOLTON FIELD   SUNNY     57  43  58 CALM      30.11F
RICKENBACK AFB NOT AVBL
NEWARK         SUNNY     58  42  55 SW7       30.10F
MARION         SUNNY     56  40  55 CALM      30.10F HAZE
LANCASTER      SUNNY     58  43  57 W6        30.11F
ZANESVILLE     SUNNY     55  43  63 W7        30.10F
NEW PHILLY     SUNNY     51  44  77 CALM      30.11F
$$



USA.gov is the U.S. government's official web portal to all federal, state and local government web resources and services.